Voltar ao catálogo

STARLINK-31395

AtivoComunicaçõesVLEO
NORAD 59180·PAYLOAD·🇺🇸 United States

Lançado Mar 10, 2024 de Cape Canaveral Space Force Station

Loading…

Próximas Passagens (próximas 24 horas)

TLE

AtualizadoSource: CelesTrak SupGP

Época: Sep 14, 2026, 14:12 UTC

1 59180C 24045C   26257.59215278  .00014602  00000+0  52932-3 0  2572
2 59180  43.0027 106.1489 0001365 266.9348 200.5270 15.27545263    10

Acompanhe STARLINK-31395 em tempo real com AllMySat

Download on the App Store